Location: *
(48.8489°N, 2.3218°E)
Time: 08:21:20
(UTC+00:00)

Cosmos 2360 - Pass Details

Date: 23 August 2019
Orbit: 845 x 856 km, 70.8° (Epoch: 21 October)

Event Time Altitude Azimuth Distance (km) Brightness Sun altitude
Rises 21:23:05 0° 329° (NNW) 3,419 8.8 -21.3°
Reaches altitude 10° 21:25:33 10° 327° (NNW) 2,481 7.8 -21.6°
Maximum altitude 21:31:12 68° 246° (WSW) 914 4.3 -22.2°
Enters shadow 21:33:03 42° 179° (S) 1,187 4.6 -22.4°
